Probability
0 0 0 1 2 1 0 0 0 0 0 0 0 0 1 2 3 2 1 0 0 1 3 5 6 5 2 1 1 0 0 0 0 0 0 0 0 0 0 0 0 0 0
0 0 0 1 2 2 1 1 0 0 0 0 0 0 0 1 2 1 0 0 0 0 2 4 5 4 3 2 1 0 0 0 0 0 0 0 0 0 0 0 0 0 0
0 0 0 1 3 3 3 2 1 1 1 0 0 0 0 1 1 0 0 0 0 1 1 3 4 4 2 1 1 0 0 1 1 1 0 0 0 0 0 0 0 0 0
0 0 1 2 2 2 3 3 3 2 2 1 0 0 1 2 2 1 1 1 1 2 2 3 3 3 2 0 0 0 0 1 2 1 0 0 0 0 0 0 0 1 1
0 0 1 1 1 1 2 3 3 3 3 1 0 1 2 5 5 3 2 2 2 3 3 2 2 2 1 0 0 0 0 1 2 1 0 0 0 0 0 0 0 0 0
0 0 0 0 0 1 2 3 3 3 3 2 2 2 4 6 6 5 3 2 2 2 1 1 0 0 0 0 0 0 1 2 2 1 0 0 0 0 0 0 0 0 0
0 0 0 0 1 2 3 3 3 3 3 3 3 3 4 5 6 4 2 0 1 1 1 0 0 0 0 0 0 1 2 2 1 0 0 0 0 0 0 0 0 0 0
0 0 0 1 2 3 4 3 3 3 3 3 3 3 3 4 4 3 1 0 0 1 1 0 0 0 0 1 1 2 3 2 1 0 0 0 0 0 0 0 0 0 0
0 0 0 1 2 3 3 4 4 4 4 4 3 3 3 3 2 1 0 0 0 1 1 1 1 1 1 2 3 3 3 1 0 0 0 0 0 0 0 0 0 0 0
0 0 0 0 1 1 2 3 3 4 5 5 4 3 3 2 1 1 1 0 0 0 1 2 2 2 3 3 3 3 2 1 0 0 0 0 0 0 0 0 0 0 0
0 0 0 0 0 0 0 1 2 3 4 3 3 2 2 1 1 2 2 1 0 0 1 2 3 3 3 3 3 3 1 0 0 0 0 0 0 0 0 0 0 0 0
0 0 0 0 0 0 0 0 0 1 1 1 1 1 1 0 1 2 2 1 0 0 1 2 2 2 2 2 2 2 1 0 0 0 0 0 0 0 0 0 1 1 0
0 0 0 0 0 0 0 0 0 0 0 0 0 0 0 0 0 1 1 1 0 0 0 1 1 1 1 1 1 1 0 0 0 0 0 0 0 0 0 1 2 2 1
0 0 0 0 0 0 0 1 1 1 0 0 1 1 1 0 0 0 0 0 0 0 0 0 0 0 0 0 0 0 0 0 0 0 0 0 0 0 0 1 2 3 3
0 0 1 1 0 0 1 2 2 2 1 1 2 2 1 0 0 0 0 0 0 0 0 0 0 0 0 0 0 0 0 0 0 0 0 0 0 0 0 0 1 2 3
0 1 2 1 0 0 1 1 2 1 1 1 2 2 1 0 0 0 0 0 0 0 0 0 0 0 0 0 0 0 0 0 0 0 0 0 0 0 0 0 1 2 3
0 1 2 2 0 0 0 0 0 0 0 0 1 1 1 0 0 0 0 0 0 0 0 0 0 0 0 0 0 0 0 0 0 0 0 0 0 0 1 1 2 2 2
1 2 2 1 0 0 0 0 0 0 0 0 0 0 0 0 0 0 0 0 0 0 0 0 0 0 0 0 0 0 0 0 0 0 0 0 0 0 1 2 3 2 2
2 2 2 1 0 0 0 0 0 0 0 0 0 0 0 0 0 0 0 0 0 0 0 0 0 0 0 0 0 0 0 0 0 0 0 0 0 0 1 2 2 3 3
4 4 4 3 1 0 1 1 0 0 0 0 0 0 0 0 0 0 0 0 0 0 0 0 0 0 0 0 0 0 0 0 0 0 0 0 0 0 0 1 1 2 3
6 6 5 4 2 1 1 2 1 0 0 0 1 0 0 0 0 0 0 0 0 0 0 0 0 0 0 0 0 0 0 0 0 0 0 0 0 0 0 0 0 1 1
6 6 5 3 1 1 1 2 1 0 1 1 1 0 0 0 0 0 0 0 0 0 0 0 0 0 0 0 0 0 0 0 0 0 0 0 0 0 0 0 0 0 0
6 6 5 2 1 1 2 2 2 2 2 1 0 0 0 0 0 0 0 0 0 0 0 0 0 0 0 0 0 0 0 0 0 0 0 0 0 0 0 0 0 0 0
7 7 5 3 2 2 2 3 3 2 2 1 0 0 0 0 0 0 0 0 0 0 0 0 0 0 0 1 1 0 0 0 0 0 0 0 0 0 0 0 0 0 0
10 8 6 5 3 2 2 2 2 2 1 0 0 0 0 0 0 0 0 0 0 0 0 0 0 0 0 1 1 0 0 0 0 0 0 0 0 0 0 0 0 0 0
11 9 7 6 5 3 2 1 1 2 2 1 0 0 0 0 1 1 1 0 0 0 0 0 0 0 0 1 1 0 0 0 0 0 0 0 0 0 0 0 0 0 0
Wind_Speed
3 4 6 9 11 11 12 12 13 14 14 14 14 15 15 15 15 15 15 14 15 15 15 15 15 15 15 15 14 14 14 14 14 14 14 14 13 13 13 13 12 9 13
1 3 6 9 10 11 12 13 13 13 13 14 14 15 15 15 15 15 15 14 14 15 15 15 15 15 15 15 14 14 14 14 13 13 13 12 12 12 12 12 11 8 12
2 2 4 8 10 11 12 12 12 13 14 14 14 14 14 14 14 14 14 14 14 14 14 14 14 15 14 14 14 13 13 13 13 12 11 8 9 11 11 11 11 11 11
2 2 4 8 10 11 12 12 13 14 14 14 14 14 14 14 14 14 14 14 13 13 13 13 14 14 13 13 12 12 12 12 12 11 6 6 6 10 10 10 10 10 11
3 2 3 8 10 11 12 12 13 13 13 13 13 13 13 13 13 13 13 13 13 12 12 12 12 12 12 11 11 11 10 10 10 8 6 5 4 8 9 10 9 10 10
2 2 3 8 9 10 11 11 12 12 12 12 12 12 12 12 12 12 12 12 12 11 11 11 11 11 10 10 10 10 9 9 7 5 5 4 4 7 8 9 9 9 9
2 2 3 7 9 9 10 10 11 11 11 11 11 11 11 11 11 11 11 11 10 10 10 10 10 9 9 8 9 9 9 9 6 5 4 3 4 6 7 7 7 8 8
2 2 3 6 8 8 9 9 9 10 10 10 10 10 9 9 9 9 9 9 9 9 9 9 9 8 7 7 8 8 8 8 6 4 3 3 5 6 7 7 6 6 7
3 3 3 3 4 6 7 8 8 8 8 8 8 8 8 7 7 7 7 7 8 7 7 7 7 7 6 6 6 7 7 7 4 3 4 2 5 6 6 6 6 6 6
2 3 3 3 3 3 3 6 7 7 7 7 7 7 6 6 6 5 5 5 6 6 6 5 5 5 5 5 5 6 6 5 4 3 2 3 5 6 6 5 5 5 6
2 2 2 2 2 2 2 3 4 5 6 6 5 6 5 3 3 3 3 4 4 5 5 4 4 4 4 3 4 5 4 2 3 2 2 4 5 6 6 6 5 5 6
1 1 1 1 1 1 1 2 2 2 3 3 3 3 3 2 2 3 3 4 4 5 4 4 3 3 3 2 2 3 2 3 2 2 2 4 5 5 6 6 6 6 6
2 2 1 1 1 1 1 2 1 1 2 2 3 3 2 2 2 3 2 2 2 3 3 3 3 2 2 1 2 2 2 2 1 2 2 5 5 5 6 6 6 6 7
2 2 1 2 1 1 1 1 1 1 1 1 1 1 1 1 1 1 1 1 1 1 1 1 1 1 2 2 2 2 2 1 1 1 2 4 5 6 6 6 6 6 7
3 2 2 2 2 1 1 0 1 1 0 0 1 1 1 1 1 1 1 1 1 1 1 1 1 1 2 2 1 1 1 1 1 1 1 3 4 4 5 5 6 6 6
4 4 3 3 2 2 1 1 0 0 0 0 0 0 0 0 0 1 1 1 1 1 1 1 1 1 1 1 2 1 1 0 1 1 1 1 3 4 4 5 5 6 6
5 4 3 4 2 2 2 2 1 1 1 0 1 1 1 1 1 1 1 0 1 1 1 1 2 2 1 2 2 1 1 1 1 0 0 0 1 3 5 5 5 5 5
4 4 4 4 3 3 2 1 1 1 1 1 1 0 1 1 1 1 1 0 0 0 1 1 1 2 1 1 1 1 1 1 0 0 0 0 1 1 3 4 4 5 5
5 4 3 3 3 3 2 2 1 1 1 0 0 0 1 1 1 1 1 0 0 1 1 1 1 1 2 1 1 1 1 1 1 0 0 1 1 1 1 3 4 3 3
4 4 4 3 3 3 2 1 1 1 1 1 0 0 0 0 1 1 0 0 1 1 1 1 1 1 1 1 1 1 1 1 1 1 1 1 1 1 1 1 2 2 2
4 4 4 4 3 3 2 1 1 0 0 0 0 0 0 0 0 1 0 0 1 1 1 1 1 2 1 1 2 1 2 2 2 1 1 1 1 1 1 1 1 1 1
6 5 4 4 4 3 2 2 2 1 1 0 1 1 1 0 0 1 1 1 1 1 1 1 1 1 1 1 1 1 1 2 2 2 1 1 1 1 1 1 1 1 1
7 7 6 5 4 3 3 2 2 2 2 1 1 1 1 1 0 0 0 0 1 1 1 1 2 2 1 1 1 2 2 1 1 1 1 1 1 1 1 1 1 1 1
8 6 5 5 4 4 4 3 3 2 2 1 1 1 1 1 1 1 1 1 1 1 1 2 2 1 2 1 1 1 1 2 2 0 1 1 1 1 1 1 1 1 1
7 7 6 5 4 4 4 5 4 3 2 1 0 1 1 2 1 1 1 0 0 1 1 1 1 1 1 1 1 1 1 1 1 2 1 1 1 1 1 1 1 1 1
6 6 6 6 5 4 5 5 5 4 3 2 1 0 1 1 1 1 1 0 0 1 1 1 1 1 1 1 0 1 1 2 2 2 2 1 1 1 1 1 1 1 1
Wind_Direction
327 341 37 66 73 77 79 85 88 93 96 97 99 100 99 100 101 101 105 103 105 106 107 106 107 107 107 108 109 109 110 110 111 113 113 113 112 112 112 110 109 110 113
309 353 67 74 75 77 81 83 85 93 97 95 97 100 100 100 100 101 102 102 103 104 105 105 106 107 107 106 108 109 109 110 111 112 112 112 113 114 114 114 113 116 117
40 21 82 82 78 80 83 84 86 93 97 94 95 99 99 99 99 101 102 103 104 104 105 106 106 105 105 107 108 108 108 109 110 109 106 102 112 117 117 118 118 120 120
64 42 79 85 82 85 86 87 89 92 94 96 95 97 98 99 99 101 103 103 104 103 104 106 106 106 108 110 110 111 111 111 112 108 97 102 111 119 121 122 123 125 125
62 45 79 85 87 89 89 90 91 93 93 93 93 96 98 99 99 100 101 102 103 103 105 107 110 112 112 111 113 114 116 114 112 104 94 91 99 123 128 131 133 132 131
66 49 87 94 95 95 93 92 94 95 94 93 92 92 96 97 98 98 99 101 101 102 104 107 110 113 112 114 117 119 119 117 107 100 100 103 112 132 136 139 140 138 137
74 45 80 98 101 99 97 97 97 98 98 97 94 91 91 93 97 99 101 102 102 103 104 106 108 111 113 115 120 123 120 122 112 112 112 117 131 141 145 146 145 144 145
93 59 68 99 105 102 101 100 101 101 100 100 98 95 91 90 94 99 102 103 103 102 104 106 108 111 110 113 120 125 127 129 122 126 124 132 149 149 153 153 153 154 153
78 63 44 60 89 102 106 105 105 103 103 102 101 100 99 98 97 98 100 104 105 106 107 111 113 112 111 115 120 128 131 132 121 128 136 142 154 156 161 164 161 163 165
68 58 50 48 54 61 83 104 106 104 104 104 102 99 95 93 92 93 94 104 109 111 113 117 119 120 117 120 126 131 130 123 123 130 137 158 161 167 170 170 170 173 176
85 49 54 56 54 58 70 98 94 97 94 88 87 87 69 49 50 64 77 90 96 102 106 108 111 116 111 105 121 127 121 119 132 138 157 170 175 182 184 183 185 186 186
168 159 87 82 78 71 81 69 53 60 60 59 54 55 47 41 34 53 51 72 72 82 95 101 90 82 82 77 88 105 107 131 142 159 175 182 189 196 196 196 200 196 192
184 182 166 149 126 96 78 85 61 52 52 52 56 57 50 42 31 38 32 30 39 54 54 60 58 59 74 95 108 117 136 145 159 177 179 190 203 210 206 202 206 200 194
167 192 184 164 145 124 106 100 95 77 59 52 45 64 72 57 36 31 27 32 38 47 50 47 66 69 72 85 108 128 148 171 180 189 195 199 210 214 216 212 208 205 200
184 201 199 175 163 144 118 121 119 120 118 102 50 48 86 88 49 38 17 21 25 50 61 50 55 63 62 61 82 118 147 179 201 202 228 221 220 224 230 225 218 215 206
198 199 198 191 185 156 151 164 167 162 135 84 309 268 163 143 82 53 26 6 2 37 61 66 63 65 63 63 61 75 89 130 154 183 212 257 244 234 238 239 233 220 214
198 193 190 191 176 167 179 191 179 168 137 212 270 249 191 158 163 144 103 16 335 34 72 71 69 76 74 71 59 50 55 59 94 138 191 260 274 257 250 248 245 235 227
187 189 198 190 168 177 180 186 181 161 152 206 249 238 201 191 185 169 175 218 253 85 91 97 91 88 80 77 57 19 31 37 39 205 200 258 273 283 278 271 259 248 245
187 184 187 180 172 181 176 165 161 139 139 162 178 217 218 205 194 181 184 156 104 119 111 124 104 126 126 113 95 42 24 13 333 324 277 265 260 280 288 305 283 267 260
184 179 178 173 175 163 144 119 99 76 58 52 37 277 251 212 185 152 159 60 99 109 81 98 125 120 130 126 92 53 24 354 6 351 310 337 330 303 307 312 309 304 285
178 178 178 172 173 150 138 143 133 139 57 21 304 321 322 299 134 141 165 130 132 134 158 142 133 121 110 121 94 47 18 35 48 28 17 18 356 334 357 352 334 326 324
187 187 184 185 179 174 167 156 149 138 124 120 7 15 351 333 138 160 172 198 162 139 127 126 137 128 146 149 134 113 10 5 18 30 44 50 0 2 6 11 10 9 351
192 191 194 193 185 178 160 119 96 76 53 35 2 341 335 345 337 287 226 188 170 166 185 186 167 163 189 214 173 159 160 214 318 354 24 26 21 19 359 15 35 18 17
198 189 188 185 180 173 156 149 152 156 171 206 236 294 338 357 334 292 251 217 204 187 199 216 186 188 177 205 222 210 182 165 171 268 2 20 28 18 2 18 13 7 1
190 182 180 178 180 173 164 165 159 166 180 169 150 328 343 349 334 322 303 241 237 224 224 230 193 184 190 196 198 179 165 171 176 181 240 317 8 13 13 8 4 1 359
181 177 175 176 183 176 171 172 173 178 175 161 179 272 316 331 329 329 306 293 231 224 230 226 197 185 198 197 195 175 180 186 187 181 200 227 297 344 19 24 14 357 10